Change the Weather History Date:

Monday, March 12, 2012

  Actual Average Record
Temperature  
Mean Temperature 22 °F 32 °F  
Max Temperature 25 °F 38 °F 49 °F (1991)
Min Temperature 18 °F 27 °F 3 °F (1966)
Degree Days  
Heating Degree Days 43 33  
Month to date heating degree days 502 396  
Since 1 July heating degree days 6827 6269  
Cooling Degree Days 0    
Month to date cooling degree days 0  
Year to date cooling degree days 0  
Moisture  
Dew Point 11 °F    
Average Humidity 0    
Maximum Humidity 0    
Minimum Humidity 0    
Precipitation  
Precipitation T in 0.18 in 1.13 in (2014)
Month to date precipitation 0.58 2.16  
Year to date precipitation 12.71 16.59  
Snow  
Snow T in 0.40 in 3.50 in (1952)
Month to date snowfall 7.7 4.6  
Since 1 July snowfall 131.5 54.0  
Snow Depth 8.00 in    
Sea Level Pressure  
Sea Level Pressure 29.33 in    
Wind  
Wind Speed 9 mph (WNW)    
Max Wind Speed 23 mph    
Max Gust Speed 32 mph    
Visibility 9 miles    
Events Snow    
T = Trace of Precipitation, MM = Missing Value Source: NWS Daily Summary

Daily Weather History Graph

Daily Weather History Graph

Search for Another Location

Airport or City:

Trip Planner

Search our weather history database for the weather conditions in past years. The results will help you decide how hot, cold, wet, or windy it might be!

Date:

Astronomy

Mar. 12, 2012 Rise Set
Actual Time 8:32 AM AKDT 8:07 PM AKDT
Civil Twilight 7:53 AM AKDT 8:46 PM AKDT
Nautical Twilight 7:07 AM AKDT 9:32 PM AKDT
Astronomical Twilight 6:20 AM AKDT 10:20 PM AKDT
Moon 1:57 AM AKDT (3/12) 9:43 AM AKDT (3/12)
Length of Visible Light 12h 53m
Length of Day
11h 35m
Waning Gibbous, 74% of the Moon is Illuminated
Mar 12
Waning Gibbous
Mar 14
Last Quarter
Mar 22
New
Mar 30
First Quarter
Apr 6
Full

Hourly Weather History & Observations

Time (AKDT) Temp. Windchill Dew Point Humidity Pressure Visibility Wind Dir Wind Speed Gust Speed Precip Events Conditions
12:53 AM 18.0 °F 3.6 °F 6.1 °F 60% 29.47 in 10.0 mi NW 15.0 mph 24.2 mph N/A   Scattered Clouds
1:53 AM 18.0 °F 2.2 °F 6.1 °F 60% 29.47 in 10.0 mi WNW 18.4 mph 29.9 mph N/A   Partly Cloudy
2:53 AM 18.0 °F 1.3 °F 7.0 °F 62% 29.48 in 10.0 mi WNW 20.7 mph 29.9 mph N/A   Partly Cloudy
3:53 AM 18.0 °F 1.3 °F 8.1 °F 65% 29.48 in 10.0 mi WNW 20.7 mph 26.5 mph N/A   Partly Cloudy
4:53 AM 18.0 °F 4.8 °F 8.1 °F 65% 29.48 in 10.0 mi WNW 12.7 mph 23.0 mph N/A   Partly Cloudy
5:53 AM 18.0 °F 3.6 °F 8.1 °F 65% 29.48 in 10.0 mi WNW 15.0 mph - N/A   Partly Cloudy
6:53 AM 18.0 °F 3.6 °F 8.1 °F 65% 29.48 in 10.0 mi WNW 15.0 mph - N/A   Partly Cloudy
7:53 AM 18.0 °F 3.6 °F 9.0 °F 68% 29.47 in 10.0 mi WNW 15.0 mph - N/A   Partly Cloudy
8:53 AM 18.0 °F 5.4 °F 9.0 °F 68% 29.45 in 10.0 mi WNW 11.5 mph - N/A   Partly Cloudy
9:53 AM 19.0 °F 5.0 °F 9.0 °F 65% 29.44 in 10.0 mi WNW 15.0 mph - N/A   Partly Cloudy
10:53 AM 19.9 °F 6.7 °F 9.0 °F 62% 29.42 in 10.0 mi WNW 13.8 mph 18.4 mph N/A   Partly Cloudy
11:53 AM 21.0 °F 7.6 °F 10.0 °F 63% 29.41 in 10.0 mi WNW 15.0 mph - N/A   Clear
12:53 PM 21.9 °F 9.8 °F 10.9 °F 63% 29.39 in 10.0 mi West 12.7 mph - N/A   Clear
1:53 PM 23.0 °F 11.7 °F 12.0 °F 63% 29.38 in 10.0 mi West 11.5 mph - N/A   Partly Cloudy
2:53 PM 24.1 °F 15.2 °F 12.0 °F 60% 29.34 in 10.0 mi West 8.1 mph - N/A   Scattered Clouds
3:53 PM 24.1 °F 18.2 °F 12.0 °F 60% 29.32 in 10.0 mi West 4.6 mph - N/A   Mostly Cloudy
4:53 PM 24.1 °F - 12.0 °F 60% 29.29 in 10.0 mi Calm Calm - N/A   Overcast
5:53 PM 24.1 °F - 12.9 °F 62% 29.25 in 9.0 mi Calm Calm - 0.00 in Snow Light Snow
6:53 PM 24.1 °F 18.2 °F 14.0 °F 65% 29.23 in 9.0 mi West 4.6 mph - 0.00 in Snow Light Snow
7:53 PM 23.0 °F - 14.0 °F 68% 29.20 in 5.0 mi Calm Calm - 0.00 in Snow Light Snow
8:53 PM 21.9 °F - 15.1 °F 75% 29.17 in 7.0 mi Calm Calm - 0.00 in Snow Light Snow
9:31 PM 21.2 °F 16.4 °F 15.8 °F 80% 29.14 in 5.0 mi West 3.5 mph - 0.00 in Snow Light Snow
9:33 PM 21.2 °F 16.4 °F 15.8 °F 80% 29.14 in 5.0 mi WSW 3.5 mph - 0.00 in Snow Light Snow
9:53 PM 21.0 °F 14.6 °F 15.1 °F 78% 29.14 in 6.0 mi WNW 4.6 mph - 0.00 in Snow Light Snow
10:53 PM 21.0 °F 16.2 °F 16.0 °F 81% 29.11 in 8.0 mi WNW 3.5 mph - 0.00 in Snow Light Snow
11:30 PM 21.2 °F 14.9 °F 15.8 °F 80% 29.09 in 6.0 mi NW 4.6 mph - 0.00 in Snow Light Snow
11:53 PM 21.0 °F 13.4 °F 16.0 °F 81% 29.07 in 6.0 mi WNW 5.8 mph - 0.00 in Snow Light Snow